When you browse on this site, cookies collect data to enhance your experience and personalize the content and advertising you see.
Visit our Privacy Policy to learn more. By continuing to use the site, you agree to this use of cookies and data.
  • In Latvia
  • List of Countries
  • For 7 days
  • Water Temperature
  • Satellite Maps
  • Weather Map
  • Weather Widgets
  • user-avatar
    Login

    Hourly Weather Graz

    Today, 20 May, Monday

    Time Temperature Precipitation Wind Pressure Humidity
    00:00 +11°C° 0 mm 1 mps 714 mmHg 94%
    01:00 +11°C° 0 mm 1 mps 714 mmHg 94%
    02:00 +11°C° 0.1 mm 1 mps 714 mmHg 94%
    03:00 +10°C° 0.1 mm 0 mps 714 mmHg 93%
    04:00 +10°C° 0.1 mm 0 mps 714 mmHg 93%
    05:00 +11°C° 0 mm 0 mps 714 mmHg 89%
    06:00 +12°C° 0 mm 0 mps 714 mmHg 86%
    07:00 +13°C° 0 mm 0 mps 714 mmHg 82%
    08:00 +15°C° 0.2 mm 1 mps 714 mmHg 77%
    09:00 +16°C° 0.2 mm 1 mps 714 mmHg 73%
    10:00 +18°C° 0.2 mm 2 mps 715 mmHg 69%
    11:00 +18°C° 0.9 mm 2 mps 715 mmHg 70%
    12:00 +18°C° 0.9 mm 2 mps 715 mmHg 72%
    13:00 +18°C° 0.9 mm 2 mps 715 mmHg 73%
    14:00 +18°C° 0.5 mm 2 mps 715 mmHg 71%
    15:00 +18°C° 0.5 mm 2 mps 715 mmHg 68%
    16:00 +19°C° 0.5 mm 2 mps 714 mmHg 66%
    17:00 +17°C° 0.1 mm 2 mps 714 mmHg 70%
    18:00 +16°C° 0.1 mm 2 mps 714 mmHg 74%
    19:00 +15°C° 0.1 mm 2 mps 714 mmHg 79%
    20:00 +13°C° 0 mm 2 mps 715 mmHg 82%
    21:00 +12°C° 0 mm 1 mps 715 mmHg 86%
    22:00 +11°C° 0 mm 1 mps 715 mmHg 90%
    23:00 +11°C° 0 mm 1 mps 715 mmHg 90%

    Tomorrow, 21 May, Tuesday

    Time Temperature Precipitation Wind Pressure Humidity
    00:00 +10°C° 0 mm 1 mps 715 mmHg 91%
    01:00 +10°C° 0 mm 1 mps 715 mmHg 92%
    02:00 +10°C° 0 mm 1 mps 715 mmHg 92%
    03:00 +10°C° 0 mm 1 mps 715 mmHg 92%
    04:00 +10°C° 0 mm 1 mps 715 mmHg 93%
    05:00 +11°C° 0 mm 1 mps 716 mmHg 88%
    06:00 +13°C° 0 mm 1 mps 716 mmHg 83%
    07:00 +14°C° 0 mm 1 mps 717 mmHg 79%
    08:00 +15°C° 0.2 mm 1 mps 717 mmHg 74%
    09:00 +16°C° 0.2 mm 2 mps 717 mmHg 70%
    10:00 +17°C° 0.2 mm 2 mps 718 mmHg 65%
    11:00 +18°C° 0.3 mm 2 mps 718 mmHg 65%
    12:00 +18°C° 0.3 mm 2 mps 718 mmHg 64%
    13:00 +19°C° 0.3 mm 2 mps 718 mmHg 63%
    14:00 +19°C° 0.3 mm 2 mps 719 mmHg 63%
    15:00 +19°C° 0.3 mm 2 mps 719 mmHg 63%
    16:00 +19°C° 0.3 mm 2 mps 719 mmHg 63%
    17:00 +19°C° 0.2 mm 1 mps 719 mmHg 68%
    18:00 +18°C° 0.2 mm 1 mps 719 mmHg 73%
    19:00 +16°C° 0.2 mm 1 mps 719 mmHg 78%
    20:00 +14°C° 0 mm 1 mps 720 mmHg 81%
    21:00 +13°C° 0 mm 1 mps 720 mmHg 85%
    22:00 +12°C° 0 mm 1 mps 721 mmHg 88%
    23:00 +12°C° 0 mm 1 mps 721 mmHg 88%

    Day after tomorrow, 22 May, Wednesday

    Time Temperature Precipitation Wind Pressure Humidity
    00:00 +10°C° 0 mm 2 mps 721 mmHg 88%
    01:00 +10°C° 0 mm 2 mps 721 mmHg 89%
    02:00 +9°C° 0 mm 2 mps 721 mmHg 88%
    03:00 +9°C° 0 mm 2 mps 721 mmHg 88%
    04:00 +9°C° 0 mm 2 mps 720 mmHg 88%
    05:00 +12°C° 0 mm 2 mps 721 mmHg 82%
    06:00 +13°C° 0 mm 2 mps 721 mmHg 77%
    07:00 +15°C° 0 mm 1 mps 721 mmHg 71%
    08:00 +17°C° 0 mm 2 mps 722 mmHg 63%
    09:00 +19°C° 0 mm 2 mps 722 mmHg 56%
    10:00 +21°C° 0 mm 2 mps 722 mmHg 48%
    11:00 +21°C° 0.3 mm 2 mps 722 mmHg 52%
    12:00 +20°C° 0.3 mm 2 mps 723 mmHg 56%
    13:00 +20°C° 0.3 mm 2 mps 723 mmHg 60%
    14:00 +20°C° 0.1 mm 2 mps 723 mmHg 57%
    15:00 +20°C° 0.1 mm 2 mps 723 mmHg 54%
    16:00 +21°C° 0.1 mm 2 mps 723 mmHg 51%
    17:00 +19°C° 0 mm 2 mps 723 mmHg 56%
    18:00 +17°C° 0 mm 2 mps 723 mmHg 62%
    19:00 +16°C° 0 mm 1 mps 723 mmHg 68%
    20:00 +15°C° 0 mm 1 mps 724 mmHg 71%
    21:00 +14°C° 0 mm 1 mps 724 mmHg 73%
    22:00 +13°C° 0 mm 1 mps 725 mmHg 76%
    23:00 +13°C° 0 mm 1 mps 725 mmHg 78%

    23 May, Thursday

    Time Temperature Precipitation Wind Pressure Humidity
    00:00 +13°C° 0 mm 1 mps 725 mmHg 80%
    01:00 +12°C° 0 mm 1 mps 725 mmHg 83%
    02:00 +12°C° 0 mm 1 mps 725 mmHg 83%
    03:00 +12°C° 0 mm 1 mps 725 mmHg 84%
    04:00 +11°C° 0 mm 1 mps 725 mmHg 85%
    05:00 +12°C° 0 mm 1 mps 725 mmHg 81%
    06:00 +13°C° 0 mm 1 mps 725 mmHg 77%
    07:00 +14°C° 0 mm 1 mps 725 mmHg 73%
    08:00 +16°C° 0 mm 1 mps 725 mmHg 63%
    09:00 +19°C° 0 mm 1 mps 726 mmHg 53%
    10:00 +21°C° 0 mm 1 mps 726 mmHg 43%
    11:00 +23°C° 0 mm 1 mps 725 mmHg 39%
    12:00 +24°C° 0 mm 1 mps 725 mmHg 35%
    13:00 +26°C° 0 mm 1 mps 725 mmHg 30%
    14:00 +25°C° 0 mm 1 mps 725 mmHg 30%
    15:00 +25°C° 0 mm 1 mps 724 mmHg 30%
    16:00 +24°C° 0 mm 2 mps 724 mmHg 29%
    17:00 +21°C° 0 mm 2 mps 724 mmHg 40%
    18:00 +20°C° 0 mm 1 mps 724 mmHg 50%
    19:00 +18°C° 0 mm 1 mps 724 mmHg 60%
    20:00 +16°C° 0 mm 1 mps 724 mmHg 67%
    21:00 +14°C° 0 mm 1 mps 724 mmHg 74%
    22:00 +12°C° 0 mm 0 mps 725 mmHg 80%
    23:00 +11°C° 0 mm 0 mps 724 mmHg 81%

    24 May, Friday

    Time Temperature Precipitation Wind Pressure Humidity
    00:00 +11°C° 0 mm 0 mps 724 mmHg 82%
    01:00 +11°C° 0 mm 0 mps 724 mmHg 83%
    02:00 +10°C° 0 mm 0 mps 724 mmHg 85%
    03:00 +11°C° 0 mm 1 mps 723 mmHg 86%
    04:00 +10°C° 0 mm 1 mps 723 mmHg 88%
    05:00 +11°C° 0 mm 0 mps 723 mmHg 81%
    06:00 +13°C° 0 mm 0 mps 723 mmHg 74%
    07:00 +15°C° 0 mm 0 mps 723 mmHg 67%
    08:00 +17°C° 0 mm 0 mps 723 mmHg 62%
    09:00 +21°C° 0 mm 1 mps 722 mmHg 56%
    10:00 +22°C° 0 mm 1 mps 722 mmHg 51%
    11:00 +22°C° 0 mm 1 mps 722 mmHg 49%
    12:00 +23°C° 0 mm 2 mps 721 mmHg 48%
    13:00 +23°C° 0 mm 2 mps 720 mmHg 47%
    14:00 +23°C° 0.1 mm 2 mps 720 mmHg 49%
    15:00 +23°C° 0.1 mm 2 mps 719 mmHg 50%
    16:00 +23°C° 0.1 mm 2 mps 719 mmHg 52%
    17:00 +20°C° 0.1 mm 2 mps 718 mmHg 60%
    18:00 +19°C° 0.1 mm 2 mps 718 mmHg 68%
    19:00 +18°C° 0.1 mm 1 mps 717 mmHg 75%
    20:00 +16°C° 0.1 mm 1 mps 717 mmHg 80%
    21:00 +15°C° 0.1 mm 1 mps 717 mmHg 85%
    22:00 +13°C° 0.1 mm 0 mps 717 mmHg 90%
    23:00 +12°C° 0 mm 0 mps 717 mmHg 91%

    25 May, Saturday

    Time Temperature Precipitation Wind Pressure Humidity
    00:00 +12°C° 0 mm 0 mps 717 mmHg 93%
    01:00 +11°C° 0 mm 0 mps 717 mmHg 94%
    02:00 +11°C° 0 mm 0 mps 717 mmHg 94%
    03:00 +11°C° 0 mm 0 mps 717 mmHg 94%
    04:00 +11°C° 0 mm 0 mps 717 mmHg 95%
    05:00 +12°C° 0 mm 0 mps 717 mmHg 90%
    06:00 +14°C° 0 mm 0 mps 717 mmHg 85%
    07:00 +15°C° 0 mm 0 mps 717 mmHg 81%
    08:00 +17°C° 0.1 mm 0 mps 718 mmHg 75%
    09:00 +20°C° 0.1 mm 1 mps 718 mmHg 69%
    10:00 +21°C° 0.1 mm 1 mps 718 mmHg 63%
    11:00 +22°C° 0.4 mm 1 mps 718 mmHg 61%
    12:00 +21°C° 0.4 mm 2 mps 718 mmHg 60%
    13:00 +23°C° 0.4 mm 2 mps 718 mmHg 59%
    14:00 +21°C° 1.3 mm 2 mps 718 mmHg 65%
    15:00 +21°C° 1.3 mm 1 mps 718 mmHg 71%
    16:00 +20°C° 1.3 mm 1 mps 718 mmHg 78%
    17:00 +19°C° 0.8 mm 1 mps 718 mmHg 81%
    18:00 +18°C° 0.8 mm 1 mps 718 mmHg 84%
    19:00 +16°C° 0.8 mm 1 mps 719 mmHg 87%
    20:00 +16°C° 0.2 mm 1 mps 719 mmHg 89%
    21:00 +15°C° 0.2 mm 1 mps 719 mmHg 90%
    22:00 +14°C° 0.2 mm 1 mps 720 mmHg 92%
    23:00 +14°C° 0 mm 1 mps 720 mmHg 92%
    Show more